Location: Risskov
(56.1972°N, 10.2480°E)
Time: 12:34:46
(UTC+00:00)

Okean 3 Rocket - Pass Details

Date: 05 July 2020
Orbit: 614 x 645 km, 82.5° (Epoch: 06 August)

Event Time Altitude Azimuth Distance (km) Brightness Sun altitude
Exits shadow 22:47:02 14° 184° (S) 1,730 5.2 -10.8°
Maximum altitude 22:50:47 76° 100° (E) 652 3.6 -10.8°
Drops below altitude 10° 22:55:13 10° 15° (NNE) 2,008 7.4 -10.9°
Sets 22:57:27 0° 14° (NNE) 2,915 8.5 -10.9°
